www.pogodaiklimat.ru

Погода и климат >> Архив погоды >> Россия >> Северная Осетия >> Владикавказ


АРХИВ ПОГОДЫ в Владикавказе

Время (UTC), дата Ветер
(напр.,м/с)
 
Видим.   Явления Облачность Т
(С)
Тd
(С)
f
(%)
Тe
(С)
Тes
(С)
Комфортность P
(гПа)
Po
(гПа)
Тmin
(С)
Tmax
(С)
R
(мм)
R24
(мм)
S
(см)
18 13.09 Ю 1 10 км ясно +17.4 +12.5 73 +18 +18 тепло 1017.3 937.8
21 13.09 Ю 1 10 км ясно +15.7 +12.3 80 +16 +16 тепло 1016.5 936.5
00 14.09 штиль 0 10 км ясно +14.5 +11.6 83 +14 +14 по сезону 1015.2 935.4
03 14.09 Ю 1 20 км 4/0
[Ac As]
+13.6 +10.9 84 +14 +14 по сезону 1015.5 935.1 +13.5
06 14.09 ЮВ 1 20 км 4/0
[Ci]
+23.2 +11.8 49 +26 +33 жарко 1012.2 934.5
09 14.09 С 2 20 км 4/0
[Ac trans Cs]
+26.3 +11.9 41 +28 +39 жарко 1009.8 933.3
12 14.09 ЮЗ 1 20 км 9/0
[Ac As Cs]
+26.0 +13.2 45 +28 +31 жарко 1009.3 932.6
15 14.09 ЮЗ 1 20 км 10/0
[Ac As Cs]
+22.6 +15.0 62 +26 +26 жарко 1009.3 931.8 +27.5
18 14.09 З 1 10 км {ливн. осадки} 9/3 1500 м
[Cb calv Ac trans]
+20.8 +14.9 69 +25 +25 комфорт 1008.9 930.8
21 14.09 ЮЗ 1 10 км 8/0
[Ac trans]
+19.0 +12.4 66 +21 +21 комфорт 1009.9 931.4
00 15.09 ЮВ 1 10 км 5/3 1500 м
[Cb calv Ac trans]
+17.4 +13.2 76 +18 +18 тепло 1012.8 933.4
03 15.09 Ю 1 20 км {ливн. осадки} 6/1 1500 м
[Cb calv Ac As]
+15.0 +12.9 87 +15 +15 по сезону 1011.4 931.7 +15.0 0.1
06 15.09 З 1 20 км {ливн. осадки} 4/1 1500 м
[Cu med, cong Ac lent Cs]
+20.4 +13.7 65 +24 +29 комфорт 1010.4 932.2
09 15.09 С 1 20 км 8/6 1000 м
[Cu med, cong Ac trans]
+23.5 +13.2 52 +26 +30 жарко 1009.0 931.7
12 15.09 З 1 20 км 9/9 600 м
[Cu med, cong]
+24.3 +12.2 47 +26 +27 жарко 1008.2 931.8
15 15.09 ЮЗ 1 10 км 10/10 600 м
[Cb calv]
+22.5 +14.1 59 +26 +26 жарко 1009.2 931.6 +26.2
18 15.09 Ю 1 10 км в посл. час ливневой дождь {гроза} 10/10 600 м
[Cb calv]
+18.4 +15.6 84 +20 +20 тепло 1012.3 933.4
21 15.09 Ю 1 10 км слабый ливневой дождь 10/10 600 м
[Cb cap]
+17.0 +15.1 89 +18 +18 тепло 1013.8 934.5
00 16.09 Ю 1 10 км {ливн. осадки} 6/6 600 м
[Sc]
+15.5 +13.9 90 +16 +16 тепло 1012.4 932.7
03 16.09 Ю 1 10 км 10/10 600 м
[Sc]
+16.2 +14.0 87 +17 +17 тепло 1011.9 932.9 +15.4 2
06 16.09 штиль 0 20 км 8/3 1000 м
[Cu hum Ac trans Ci]
+22.1 +14.1 60 +25 +29 комфорт 1010.5 932.6
09 16.09 В 1 20 км 8/6 600 м
[Cu Sc Ac As]
+24.3 +13.8 52 +27 +30 жарко 1009.4 932.0
12 16.09 С 1 20 км 6/6 600 м
[Cu med, cong]
+25.1 +13.9 50 +27 +30 жарко 1008.4 931.2
15 16.09 З 5-12
{12}
10 км 9/8 600 м
[Cb cap Ac As]
+22.7 +14.3 59 +26 +26 жарко 1009.9 932.1 +26.7
18 16.09 З 1 10 км 10/10 600 м
[Cb cap]
+18.8 +14.3 75 +21 +21 комфорт 1014.1 934.9
21 16.09 З 1 10 км 10/10 600 м
[Cb cap]
+18.0 +14.5 80 +19 +19 тепло 1015.0 935.5
00 17.09 З 2 10 км {ливн. осадки} 10/10 600 м
[Cb cap]
+16.9 +14.7 87 +17 +17 тепло 1015.0 935.3
03 17.09 штиль 0 4000 м слабый ливневой дождь 10/10 300 м
[Cb cap]
+16.0 +14.4 90 +16 +16 тепло 1015.9 935.9 +15.9 3
06 17.09 Ю 1 10 км в посл. час ливневой дождь 10/10 600 м
[Cb cap]
+15.4 +13.7 90 +16 +16 по сезону 1017.7 937.3 +14.9
09 17.09 ЮВ 3 10 км в посл. час ливневой дождь 10/10 600 м
[Sc diur, vesp]
+17.0 +11.6 70 +17 +17 по сезону 1017.3 937.3
12 17.09 Ю 1 10 км {ливн. осадки} 10/10 600 м
[Sc]
+19.0 +12.3 65 +21 +21 комфорт 1016.0 936.6
15 17.09 СЗ 2 4000 м слабый ливневой дождь 10/10 300 м
[Cb cap]
+17.3 +13.0 76 +18 +18 по сезону 1017.4 937.6 +19.4 2
18 17.09 ЮЗ 1 4000 м слабый ливневой дождь 10/10 300 м
[Cb cap]
+14.9 +13.1 89 +15 +15 по сезону 1019.6 938.9
21 17.09 штиль 0 10 км в посл. час ливневой дождь 10/10 300 м
[Sc diur, vesp]
+14.0 +12.4 90 +14 +14 по сезону 1019.9 938.9
00 18.09 Ю 1 10 км {ливн. осадки} 10/10 300 м
[Sc]
+11.4 +9.9 90 +11 +11 по сезону 1022.1 940.2
03 18.09 Ю 1 10 км в посл. час ливневой дождь 10/10 300 м
[Cb cap]
+10.5 +8.8 89 +10 +10 прохладно 1022.9 940.7 +10.5 9
06 18.09 Ю 1 10 км {ливн. осадки} 10/10 600 м
[Sc]
+13.7 +8.3 70 +14 +14 по сезону 1022.7 941.3
09 18.09 ЮЗ 1 50 км 3/1 1500 м
[Cu hum Ac cuf]
+17.9 +7.4 50 +19 +30 тепло 1020.6 940.5
12 18.09 С 1 50 км 3/1 1500 м
[Cu hum Ac As Cc]
+20.3 +5.6 38 +22 +28 комфорт 1019.2 939.8
15 18.09 штиль 0 50 км 4/0 2000 м
[Ac trans Ci fib]
+16.4 +6.6 52 +16 +16 по сезону 1020.3 939.8 +20.6
18 18.09 Ю 1 10 км 3/0
[Ac trans]
+11.7 +8.4 80 +12 +12 по сезону 1023.6 941.6
21 18.09 Ю 1 10 км 8/0
[Ac trans]
+11.5 +7.9 79 +11 +11 по сезону 1023.1 941.1
00 19.09 Ю 1 10 км 1/0
[Ac trans]
+10.0 +7.2 83 +10 +10 по сезону 1023.3 940.8
03 19.09 Ю 1 50 км ясно +8.8 +6.4 85 +8 +8 холодно 1024.3 941.4 +8.7
06 19.09 СЗ 1 50 км ясно +16.7 +4.0 43 +18 +24 тепло 1022.4 941.7
09 19.09 СЗ 1 50 км ясно +21.3 +4.1 32 +22 +35 комфорт 1020.0 940.7
12 19.09 З 2 50 км ясно +22.7 +1.0 24 +22 +28 комфорт 1019.2 940.3
15 19.09 СЗ 1 20 км ясно +18.4 +3.1 36 +20 +20 тепло 1021.1 941.0 +23.4
18 19.09 Ю 1 10 км 3/0
[Ac trans]
+12.8 +6.6 66 +13 +13 по сезону 1023.7 942.0
21 19.09 Ю 1 10 км ясно +11.8 +6.0 68 +12 +12 по сезону 1024.2 942.2
00 20.09 Ю 1 10 км ясно +10.5 +5.7 72 +10 +10 по сезону 1024.2 941.8
03 20.09 Ю 2 20 км ясно +10.3 +5.3 71 +9 +9 прохладно 1024.4 941.9 +10.0
06 20.09 Ю 1 50 км ясно +19.0 +5.7 42 +21 +27 комфорт 1021.7 941.7
09 20.09 С 1 50 км ясно +22.7 +4.8 31 +23 +36 комфорт 1019.3 940.4
12 20.09 СЗ 1 50 км ясно +24.3 +4.9 29 +24 +31 комфорт 1017.3 939.1

 

Местоположение метеостанции Владикавказ (Северная Осетия, Россия): широта 43.03 долгота 44.68 высота над уровнем моря 703 м.

В архиве по умолчанию представлена погода в Владикавказе за последнюю неделю. Архивные данные за месяц целиком и за предыдущие месяцы, начиная с января 2011 года, Вы можете получить, выбрав интересующий диапазон дат из раскрывающегося списка и нажав кнопку "Ввод!".


*Определитесь, кто Вы:
робот инопланетянин человек

Внимание! Время в таблицах - всемирное. Для получения местного времени необходимо прибавить поправку, которая в Владикавказе равна 3 ч.

Смотрите также архив погоды в соседних городах и на ближайших метеорологических станциях:

Погода в Назрани (Ингушетия, Россия) (19 км)
Погода в Алагире (Северная Осетия, Россия) (35 км)
Погода в Рокском Перевале (Северная Осетия, Россия) (66 км)
Погода в Наре (Северная Осетия, Россия) (68 км)
Погода в ?????????? (Грузия) (76 км)
Погода в Моздоке (Северная Осетия, Россия) (78 км)
Погода в Шатое (Чечня, Россия) (83 км)
Погода в Наурской (Чечня, Россия) (86 км)
Погода в Грозном (Чечня, Россия) (88 км)
Погода в Прохладный (Кабардино-Балкария, Россия) (95 км)

Пояснения к столбцам:

Ветер - указаны скорость ветра в м/с - средняя за 10 мин, порывы в срок и между сроками (в фигурных скобках) и направление, откуда дует ветер: С - северный, СВ - северо-восточный, В - восточный, ЮВ - юго-восточный, Ю - южный, ЮЗ - юго-западный, З - западный, СЗ - северо-западный.
Видимость - горизонтальная дальность видимости в метрах или километрах. При видимости от 1 до 10 км при отсутствии осадков обычно наблюдается дымка, при ухудшении видимости до 1 км и менее - туман. В сухую погоду видимость может ухудшаться дымом, пылью или мглою.
Явления - указаны атмосферные явления, наблюдавшиеся в срок или в последний час перед сроком; фигурными скобками обозначены явления, наблюдавшиеся между сроками (за 1-3 часа до срока); квадратными скобками обозначены град или гололедные отложения с указанием их диаметра в мм.
Облачность - указаны через наклонную черту общая и нижняя облачность в баллах и высота нижней границы облаков в метрах; квадратными скобками обозначены формы облаков: Ci - перистые, Cs - перисто-слоистые, Cc - перисто-кучевые, Ac - высококучевые, As - высокослоистые, Sc - слоисто-кучевые, Ns - слоисто-дождевые, Cu - кучевые, Cb - кучево-дождевые. Подробнее классификацию облаков см. в Атласе облаков (PDF).
T - Температура воздуха - температура, измеренная на высоте 2 м над землей.
Td - Температура точки росы - температура, при понижении до которой содержащийся в воздухе водяной пар достигнет насыщения.
f - Относительная влажность воздуха - влажноcть воздуха, измеренная на высоте 2 м над землей.
Te - Эффективная температура - температура, которую ощущает одетый по сезону человек в тени. Характеристика душности погоды. При расчете учитывается влияние влажности воздуха и скорости ветра на теплоощущения человека.
Tes - Эффективная температура на солнце - температура, которую ощущает человек, с поправкой на солнечный нагрев. Характеристика знойности погоды. Зависит от высоты солнца над горизонтом, облачности и скорости ветра. Ночью, в пасмурную погоду, а также при ветре 12 м/с и более поправка равна нулю.
P - Атмосферное давление - приведенное к уровню моря атмосферное давление.
Po - Атмосферное давление - измеренное на уровне метеостанции атмосферное давление.
Tmin - Минимальная температура - минимум температуры воздуха на высоте 2 м над землей.
Tmax - Максимальная температура - максимум температуры воздуха на высоте 2 м над землей.
R - Количество осадков - Количество выпавших осадков за период времени, мм. При наведении курсора мыши на число - период времени, за который выпало указанное количество осадков.
R24 - Количество осадков - Количество выпавших осадков за 24 часа, мм.
S - Снежный покров - Высота снежного покрова, см. При наведении курсора мыши на число - состояние снежного покрова и степень покрытия местности в баллах.